EW7554 Weather Reports


time (UTC)temp
F
wind
direction
speed
knots
gust
knots
rain 1hr
in
rain 24hr
in
rain mn
in
humidity
%
barometer
mb
20260504214559 56 301 10.4 21.7 0.00 0.00 0.00 40 1002.1
20260504213059 57 309 9.6 22.6 0.00 0.00 0.00 39 1002.1
20260504211556 58 328 10.4 22.6 0.00 0.00 0.00 38 1001.8
20260504210107 60 287 5.2 17.4 0.00 0.00 0.00 37 1001.7
20260504204605 58 304 7.8 20.0 0.00 0.00 0.00 38 1001.5
20260504203106 60 337 10.4 20.0 0.00 0.00 0.00 37 1001.5
20260504201555 59 302 12.2 22.6 0.00 0.00 0.00 38 1001.3
20260504200053 59 284 7.8 19.1 0.00 0.00 0.00 40 1001.1
20260504194601 59 297 11.3 22.6 0.00 0.00 0.00 38 1001.2
20260504193052 61 327 7.0 18.2 0.00 0.00 0.00 38 1000.9
20260504191551 60 329 7.8 21.7 0.00 0.00 0.00 40 1000.5
20260504190116 60 338 8.7 21.7 0.00 0.00 0.00 38 1000.6
20260504184551 59 294 11.3 21.7 0.00 0.00 0.00 37 1000.4
20260504183051 60 292 8.7 20.0 0.00 0.00 0.00 35 1000.1
20260504181550 59 292 13.9 22.6 0.00 0.00 0.00 35 1000.1
20260504180049 60 271 4.3 20.0 0.00 0.00 0.00 37 999.6
20260504174548 61 290 8.7 20.9 0.00 0.00 0.00 37 999.4
20260504173047 60 266 11.3 22.6 0.00 0.00 0.00 38 999.4
20260504171546 62 305 9.6 16.5 0.00 0.00 0.00 39 999.2
20260504081533 56 186 7.0 12.2 0.00 0.00 0.00 45 998.5
20260504050113 57 188 3.5 6.1 0.00 0.00 0.00 45 1002.0
20260504044553 58 173 3.5 6.1 0.00 0.00 0.00 43 1002.3
20260504043106 58 189 4.3 7.0 0.00 0.00 0.00 42 1002.5
20260504041549 59 186 3.5 7.0 0.00 0.00 0.00 41 1002.8
20260504040047 59 199 1.7 4.3 0.00 0.00 0.00 40 1003.2
20260504034544 60 195 1.7 4.3 0.00 0.00 0.00 38 1003.5
20260504033043 60 192 2.6 4.3 0.00 0.00 0.00 37 1003.7
20260504031540 60 199 2.6 4.3 0.00 0.00 0.00 38 1003.9
20260504030043 61 186 1.7 3.5 0.00 0.00 0.00 37 1003.9
20260504024540 62 227 1.7 3.5 0.00 0.00 0.00 34 1004.0
20260504023038 62 233 0.9 2.6 0.00 0.00 0.00 33 1004.2
20260504021537 63 233 0.9 2.6 0.00 0.00 0.00 32 1004.2
20260504020037 64 234 0.9 3.5 0.00 0.00 0.00 31 1004.2
20260504014549 64 232 0.9 3.5 0.00 0.00 0.00 30 1004.2
20260504013040 66 269 0.9 4.3 0.00 0.00 0.00 28 1004.4
20260504011533 67 234 1.7 5.2 0.00 0.00 0.00 27 1004.4
20260504010033 68 268 2.6 7.0 0.00 0.00 0.00 26 1004.5
20260504004532 68 259 3.5 8.7 0.00 0.00 0.00 26 1004.5
20260504003031 70 200 2.6 11.3 0.00 0.00 0.00 25 1004.5
20260504001529 70 279 2.6 9.6 0.00 0.00 0.00 25 1004.6
20260504000040 69 295 4.3 9.6 0.00 0.00 0.00 24 1004.7
20260503234529 71 251 1.7 7.8 0.00 0.00 0.00 25 1004.6
20260503233028 71 265 5.2 12.2 0.00 0.00 0.00 24 1004.7
20260503231526 72 255 3.5 8.7 0.00 0.00 0.00 23 1005.0
20260503230026 71 326 2.6 10.4 0.00 0.00 0.00 24 1005.1
20260503224531 71 248 5.2 15.6 0.00 0.00 0.00 23 1005.2
20260503223024 71 316 5.2 13.0 0.00 0.00 0.00 24 1005.3
20260503221523 70 342 4.3 15.6 0.00 0.00 0.00 24 1005.3
20260503220026 70 312 3.5 13.9 0.00 0.00 0.00 24 1005.4